星链-4054 (STARLINK-4054 )

导读

STARLINK-4054是美国SpaceX公司星链(Starlink)星座的组网卫星,于2022年7月17日由猎鹰9号火箭发射。作为低轨通信卫星,它运行于近地轨道,采用氪基霍尔电推实现轨道调整,依托星链星座为全球提供高速低延迟宽带互联网服务,服役寿命约5-7年,末期将主动离轨坠入大气层销毁。

Basic Information
目录编号:
53158
目录名称:
STARLINK-4054
国际标识:
2022-083AC
轨道中心:
EARTH
卫星名称:
星链-4054
卫星全名:
星链-4054 (STARLINK-4054 )
卫星状态:
在轨 (已飞行1431 天)
发射日期:
2022-07-17 UTC
国别 :
美国 (US)
星等 :
--
Orbit Information
数据来源 国际轨道数据 AOE轨道数据
星历时间 2026-06-17T08:30:12+0800
14小时前
查看轨道信息
2026-06-15T00:00:00+0800
2天前
查看轨道信息
半长轴 6917.892km 6917.917km
偏心率 0.0001506 0.0002041
轨道倾角 53.162° 53.159°
近地点辐角 92.793° 65.843°
升交点赤经 78.111° 88.699°
平近点角 267.324° 99.120°
近地点 538.713km 538.368km
远地点 540.797km 541.192km
周期 95.438分钟 95.438分钟
每日圈数 15.088365 15.088283
Detailed Information
固有亮度:
5
最大亮度:
2.5
卫星平台:
Starlink v1.5
覆盖范围:
全球
运营商:
太空探索技术公司
运营商所在国:
美国
制造商(研发单位):
太空探索技术公司
制造商所在国:
美国
使用方式:
暂无
Satellite Introduction
星链(Starlink)计划是由太空探索技术公司(SpaceX)提出的一个巨型低轨卫星互联网星座项目,计划在2019年至2024年间在太空搭建由约1.2万颗卫星组成的“星链”网络,其中1584颗将部署在地球上空550千米处的近地轨道,并从2020年开始工作。该卫星仍在工作。
2D Orbit Map
3D Orbit Map
Orbit Altitude Analysis Chart
Orbit Inclination Analysis Chart
Orbit Comprehensive Analysis Chart
View Comprehensive Chart